"Period start","avg(HW err(1)/warn(2) (#))","avg(Visibility (m))","avg(Weather code (#))","avg(Precip intensity (mm/h))","min(HW err(1)/warn(2) (#))","max(HW err(1)/warn(2) (#))","std(HW err(1)/warn(2) (#))","med(HW err(1)/warn(2) (#))","min(Visibility (m))","max(Visibility (m))","std(Visibility (m))","med(Visibility (m))","min(Weather code (#))","max(Weather code (#))","std(Weather code (#))","med(Weather code (#))","min(Precip intensity (mm/h))","max(Precip intensity (mm/h))","std(Precip intensity (mm/h))","med(Precip intensity (mm/h))"
2014-06-26 00:00:00,2,49223,0,0.00,2,2,0,2,43695,50000,1894,50000,0,0,0,0,0.00,0.00,0.00,0.00
2014-06-26 00:10:00,2,47293,0,0.00,2,2,0,2,39602,50000,3873,49776,0,0,0,0,0.00,0.00,0.00,0.00
2014-06-26 00:20:00,2,49492,0,0.00,2,2,0,2,45046,50000,1483,50000,0,0,0,0,0.00,0.00,0.00,0.00
2014-06-26 00:30:00,2,49641,0,0.00,2,2,0,2,46406,50000,1078,50000,0,0,0,0,0.00,0.00,0.00,0.00
2014-06-26 00:40:00,2,48639,0,0.00,2,2,0,2,43406,50000,2309,50000,0,0,0,0,0.00,0.00,0.00,0.00
2014-06-26 00:50:00,2,49231,0,0.00,2,2,0,2,45690,50000,1383,50000,0,0,0,0,0.00,0.00,0.00,0.00
2014-06-26 01:00:00,2,48806,0,0.00,2,2,0,2,43716,50000,2037,50000,0,0,0,0,0.00,0.00,0.00,0.00
2014-06-26 01:10:00,2,50000,0,0.00,2,2,0,2,50000,50000,0,50000,0,0,0,0,0.00,0.00,0.00,0.00
2014-06-26 01:20:00,2,48936,0,0.00,2,2,0,2,46713,50000,1150,49286,0,0,0,0,0.00,0.00,0.00,0.00
2014-06-26 01:30:00,2,49850,0,0.00,2,2,0,2,48502,50000,449,50000,0,0,0,0,0.00,0.00,0.00,0.00
2014-06-26 01:40:00,2,49175,0,0.00,2,2,0,2,46619,50000,1129,50000,0,0,0,0,0.00,0.00,0.00,0.00
2014-06-26 01:50:00,2,49524,0,0.00,2,2,0,2,47512,50000,867,50000,0,0,0,0,0.00,0.00,0.00,0.00
2014-06-26 02:00:00,2,48868,0,0.00,2,2,0,2,43470,50000,2165,50000,0,0,0,0,0.00,0.00,0.00,0.00
2014-06-26 02:10:00,2,46096,0,0.00,2,2,0,2,38888,50000,3966,47056,0,0,0,0,0.00,0.00,0.00,0.00
2014-06-26 02:20:00,2,48911,0,0.00,2,2,0,2,45948,50000,1569,50000,0,0,0,0,0.00,0.00,0.00,0.00
2014-06-26 02:30:00,2,49859,0,0.00,2,2,0,2,48640,50000,407,50000,0,0,0,0,0.00,0.00,0.00,0.00
2014-06-26 02:40:00,2,46912,0,0.00,2,2,0,2,38157,50000,4503,49932,0,0,0,0,0.00,0.00,0.00,0.00
2014-06-26 02:50:00,2,49372,0,0.00,2,2,0,2,47405,50000,998,50000,0,0,0,0,0.00,0.00,0.00,0.00
2014-06-26 03:00:00,1,48222,0,0.00,0,2,1,0,41462,50000,2820,50000,0,0,0,0,0.00,0.00,0.00,0.00
2014-06-26 03:10:00,0,49782,0,0.00,0,0,0,0,49191,50000,335,50000,0,0,0,0,0.00,0.00,0.00,0.00
2014-06-26 03:20:00,1,49912,0,0.00,0,2,1,2,49358,50000,198,50000,0,0,0,0,0.00,0.00,0.00,0.00
2014-06-26 03:30:00,2,50000,0,0.00,0,2,1,2,50000,50000,0,50000,0,0,0,0,0.00,0.00,0.00,0.00
2014-06-26 03:40:00,0,49574,0,0.00,0,2,1,0,46776,50000,982,50000,0,0,0,0,0.00,0.00,0.00,0.00
2014-06-26 03:50:00,1,48266,0,0.00,0,2,1,0,42191,50000,2541,49588,0,0,0,0,0.00,0.00,0.00,0.00
2014-06-26 04:00:00,2,48735,0,0.00,0,2,1,2,43339,50000,2390,49910,0,0,0,0,0.00,0.00,0.00,0.00
2014-06-26 04:10:00,2,45854,0,0.00,0,2,1,2,34534,50000,4916,47232,0,0,0,0,0.00,0.00,0.00,0.00
2014-06-26 04:20:00,2,49162,0,0.00,2,2,0,2,41779,50000,2461,50000,0,0,0,0,0.00,0.00,0.00,0.00
2014-06-26 04:30:00,2,48968,0,0.00,2,2,0,2,42544,50000,2305,50000,0,0,0,0,0.00,0.00,0.00,0.00
2014-06-26 04:40:00,1,49529,0,0.00,0,2,1,1,47104,50000,930,50000,0,0,0,0,0.00,0.00,0.00,0.00
2014-06-26 04:50:00,1,49070,0,0.00,0,2,1,2,43565,50000,2024,50000,0,0,0,0,0.00,0.00,0.00,0.00
2014-06-26 05:00:00,1,47760,0,0.00,0,2,1,2,44030,50000,2301,48499,0,0,0,0,0.00,0.00,0.00,0.00
2014-06-26 05:10:00,2,47708,0,0.00,0,2,1,2,43829,50000,2426,48684,0,0,0,0,0.00,0.00,0.00,0.00
2014-06-26 05:20:00,2,49083,0,0.00,0,2,1,2,44150,50000,1835,50000,0,0,0,0,0.00,0.00,0.00,0.00
2014-06-26 05:30:00,2,48667,0,0.00,2,2,0,2,42835,50000,2273,50000,0,0,0,0,0.00,0.00,0.00,0.00
2014-06-26 05:40:00,2,48585,0,0.00,2,2,0,2,40712,50000,2864,50000,0,0,0,0,0.00,0.00,0.00,0.00
2014-06-26 05:50:00,2,48119,0,0.00,2,2,0,2,42642,50000,2672,49292,0,0,0,0,0.00,0.00,0.00,0.00
2014-06-26 06:00:00,2,43684,0,0.00,2,2,0,2,37302,50000,3766,43990,0,0,0,0,0.00,0.00,0.00,0.00
2014-06-26 06:10:00,2,47325,0,0.00,2,2,0,2,37977,50000,3493,48194,0,0,0,0,0.00,0.00,0.00,0.00
2014-06-26 06:20:00,2,49793,0,0.00,2,2,0,2,47926,50000,622,50000,0,0,0,0,0.00,0.00,0.00,0.00
2014-06-26 06:30:00,2,49959,0,0.00,2,2,0,2,49587,50000,124,50000,0,0,0,0,0.00,0.00,0.00,0.00
2014-06-26 06:40:00,2,49712,0,0.00,2,2,0,2,47119,50000,864,50000,0,0,0,0,0.00,0.00,0.00,0.00
2014-06-26 06:50:00,2,49329,0,0.00,2,2,0,2,46535,50000,1343,50000,0,0,0,0,0.00,0.00,0.00,0.00
2014-06-26 07:00:00,2,49031,0,0.00,2,2,0,2,44336,50000,1973,50000,0,0,0,0,0.00,0.00,0.00,0.00
2014-06-26 07:10:00,2,49751,0,0.00,2,2,0,2,48710,50000,498,50000,0,0,0,0,0.00,0.00,0.00,0.00
2014-06-26 07:20:00,2,49912,0,0.00,2,2,0,2,49257,50000,222,50000,0,0,0,0,0.00,0.00,0.00,0.00
2014-06-26 07:30:00,2,50000,0,0.00,2,2,0,2,50000,50000,0,50000,0,0,0,0,0.00,0.00,0.00,0.00
2014-06-26 07:40:00,2,49844,0,0.00,2,2,0,2,48437,50000,469,50000,0,0,0,0,0.00,0.00,0.00,0.00
2014-06-26 07:50:00,2,50000,0,0.00,2,2,0,2,50000,50000,0,50000,0,0,0,0,0.00,0.00,0.00,0.00
2014-06-26 08:00:00,2,49471,0,0.00,2,2,0,2,46626,50000,1045,50000,0,0,0,0,0.00,0.00,0.00,0.00
2014-06-26 08:10:00,2,49110,0,0.00,2,2,0,2,45850,50000,1439,50000,0,0,0,0,0.00,0.00,0.00,0.00
2014-06-26 08:20:00,2,50000,0,0.00,2,2,0,2,50000,50000,0,50000,0,0,0,0,0.00,0.00,0.00,0.00
2014-06-26 08:30:00,2,49936,0,0.00,2,2,0,2,49355,50000,194,50000,0,0,0,0,0.00,0.00,0.00,0.00
2014-06-26 08:40:00,2,49096,0,0.00,2,2,0,2,42701,50000,2159,50000,0,0,0,0,0.00,0.00,0.00,0.00
2014-06-26 08:50:00,2,50000,0,0.00,2,2,0,2,50000,50000,0,50000,0,0,0,0,0.00,0.00,0.00,0.00
2014-06-26 09:00:00,2,49863,0,0.00,2,2,0,2,48634,50000,410,50000,0,0,0,0,0.00,0.00,0.00,0.00
2014-06-26 09:10:00,2,50000,0,0.00,2,2,0,2,50000,50000,0,50000,0,0,0,0,0.00,0.00,0.00,0.00
2014-06-26 09:20:00,2,42129,0,0.00,2,2,0,2,21767,50000,9954,48690,0,0,0,0,0.00,0.00,0.00,0.00
2014-06-26 09:30:00,2,49006,0,0.00,2,2,0,2,44047,50000,1984,50000,0,0,0,0,0.00,0.00,0.00,0.00
2014-06-26 09:40:00,2,50000,0,0.00,2,2,0,2,50000,50000,0,50000,0,0,0,0,0.00,0.00,0.00,0.00
2014-06-26 09:50:00,2,49969,0,0.00,2,2,0,2,49687,50000,94,50000,0,0,0,0,0.00,0.00,0.00,0.00
2014-06-26 10:00:00,2,50000,0,0.00,2,2,0,2,50000,50000,0,50000,0,0,0,0,0.00,0.00,0.00,0.00
2014-06-26 10:10:00,2,50000,0,0.00,2,2,0,2,50000,50000,0,50000,0,0,0,0,0.00,0.00,0.00,0.00
2014-06-26 10:20:00,2,50000,0,0.00,2,2,0,2,50000,50000,0,50000,0,0,0,0,0.00,0.00,0.00,0.00
2014-06-26 10:30:00,2,50000,0,0.00,2,2,0,2,50000,50000,0,50000,0,0,0,0,0.00,0.00,0.00,0.00
2014-06-26 10:40:00,2,50000,0,0.00,2,2,0,2,50000,50000,0,50000,0,0,0,0,0.00,0.00,0.00,0.00
2014-06-26 10:50:00,2,50000,0,0.00,2,2,0,2,50000,50000,0,50000,0,0,0,0,0.00,0.00,0.00,0.00
2014-06-26 11:00:00,2,50000,0,0.00,2,2,0,2,50000,50000,0,50000,0,0,0,0,0.00,0.00,0.00,0.00
2014-06-26 11:10:00,2,49979,0,0.00,2,2,0,2,49786,50000,64,50000,0,0,0,0,0.00,0.00,0.00,0.00
2014-06-26 11:20:00,2,28147,0,0.00,2,2,0,2,10487,42384,11404,31551,0,0,0,0,0.00,0.00,0.00,0.00
2014-06-26 11:30:00,2,12562,0,0.00,2,2,0,2,7260,20781,4207,12758,0,0,0,0,0.00,0.00,0.00,0.00
2014-06-26 11:40:00,2,11216,15,0.05,2,2,0,2,6355,18042,3829,9888,0,51,19,5,0.00,0.35,0.10,0.00
2014-06-26 11:50:00,2,9204,45,0.21,2,2,0,2,5092,14861,2394,8762,0,61,20,51,0.00,0.75,0.22,0.17
2014-06-26 12:00:00,2,10664,43,0.23,2,2,0,2,4817,15829,3282,10897,10,51,16,51,0.00,1.30,0.37,0.15
2014-06-26 12:10:00,2,38634,5,0.00,2,2,0,2,9967,50000,15048,48723,0,10,5,5,0.00,0.00,0.00,0.00
2014-06-26 12:20:00,2,46468,0,0.00,2,2,0,2,20570,50000,8809,50000,0,0,0,0,0.00,0.00,0.00,0.00
2014-06-26 12:30:00,2,44464,0,0.00,2,2,0,2,34283,50000,6470,48814,0,0,0,0,0.00,0.00,0.00,0.00
2014-06-26 12:40:00,2,50000,0,0.00,2,2,0,2,50000,50000,0,50000,0,0,0,0,0.00,0.00,0.00,0.00
2014-06-26 12:50:00,2,50000,0,0.00,2,2,0,2,50000,50000,0,50000,0,0,0,0,0.00,0.00,0.00,0.00
2014-06-26 13:00:00,2,49221,0,0.00,2,2,0,2,42207,50000,2338,50000,0,0,0,0,0.00,0.00,0.00,0.00
2014-06-26 13:10:00,2,49341,0,0.00,2,2,0,2,44765,50000,1578,50000,0,0,0,0,0.00,0.00,0.00,0.00
2014-06-26 13:20:00,2,45768,0,0.00,2,2,0,2,35512,50000,6381,50000,0,0,0,0,0.00,0.00,0.00,0.00
2014-06-26 13:30:00,2,30928,0,0.00,2,2,0,2,18475,47257,8423,31696,0,0,0,0,0.00,0.00,0.00,0.00
2014-06-26 13:40:00,2,39918,0,0.00,2,2,0,2,20263,50000,10674,44532,0,0,0,0,0.00,0.00,0.00,0.00
2014-06-26 13:50:00,2,49996,0,0.00,2,2,0,2,49964,50000,11,50000,0,0,0,0,0.00,0.00,0.00,0.00
2014-06-26 14:00:00,2,49602,0,0.00,2,2,0,2,46021,50000,1194,50000,0,0,0,0,0.00,0.00,0.00,0.00
2014-06-26 14:10:00,2,42163,23,0.03,2,2,0,2,33637,50000,5855,41302,0,51,24,20,0.00,0.10,0.03,0.00
2014-06-26 14:20:00,2,44423,51,0.08,2,2,0,2,35241,50000,4710,44392,51,51,0,51,0.00,0.15,0.05,0.08
2014-06-26 14:30:00,2,49928,15,0.01,2,2,0,2,49441,50000,169,50000,0,51,23,0,0.00,0.05,0.02,0.00
2014-06-26 14:40:00,2,49554,0,0.00,2,2,0,2,46602,50000,1011,50000,0,0,0,0,0.00,0.00,0.00,0.00
2014-06-26 14:50:00,2,45182,52,0.03,2,2,0,2,35807,50000,4492,45934,41,61,7,51,0.00,0.15,0.04,0.03
2014-06-26 15:00:00,2,50000,5,0.00,2,2,0,2,50000,50000,0,50000,0,51,15,0,0.00,0.00,0.00,0.00
2014-06-26 15:10:00,2,45657,0,0.00,2,2,0,2,38140,49800,4045,46350,0,0,0,0,0.00,0.00,0.00,0.00
2014-06-26 15:20:00,2,24290,0,0.00,2,2,0,2,17682,37073,5489,22832,0,0,0,0,0.00,0.00,0.00,0.00
2014-06-26 15:30:00,2,48510,0,0.00,2,2,0,2,39549,50000,3085,50000,0,0,0,0,0.00,0.00,0.00,0.00
2014-06-26 15:40:00,2,50000,0,0.00,2,2,0,2,50000,50000,0,50000,0,0,0,0,0.00,0.00,0.00,0.00
2014-06-26 15:50:00,2,48826,0,0.00,2,2,0,2,44999,50000,1752,50000,0,0,0,0,0.00,0.00,0.00,0.00
2014-06-26 16:00:00,2,25310,18,0.15,2,2,0,2,9876,48346,11876,22230,0,52,23,0,0.00,0.95,0.28,0.00
2014-06-26 16:10:00,2,10670,44,0.90,2,2,0,2,6363,16289,3119,9817,0,61,22,52,0.00,2.30,0.76,0.60
2014-06-26 16:20:00,2,5848,52,2.72,2,2,0,2,3208,10473,2023,5548,52,52,0,52,0.90,5.80,1.61,2.10
2014-06-26 16:30:00,2,12148,42,0.72,2,2,0,2,4942,31272,7497,9206,0,52,21,52,0.00,2.20,0.64,0.68
2014-06-26 16:40:00,2,47651,0,0.00,2,2,0,2,33120,50000,5229,50000,0,0,0,0,0.00,0.00,0.00,0.00
2014-06-26 16:50:00,2,19900,30,2.02,2,2,0,2,4178,50000,17407,10933,0,61,30,26,0.00,6.95,2.65,0.20
2014-06-26 17:00:00,2,5155,57,7.35,2,2,0,2,2882,11310,2485,4138,52,62,5,56,0.55,14.70,4.41,7.82
2014-06-26 17:10:00,2,4959,61,5.86,2,2,0,2,3607,6482,859,4900,61,62,0,61,1.85,11.85,3.03,4.82
2014-06-26 17:20:00,2,5865,61,6.66,2,2,0,2,4303,8320,1418,5307,61,62,0,61,0.65,12.45,3.19,6.85
2014-06-26 17:30:00,2,6083,61,5.21,2,2,0,2,4340,7434,859,6016,61,61,0,61,2.30,8.55,1.85,4.65
2014-06-26 17:40:00,2,9236,61,1.81,2,2,0,2,5128,12514,2299,10218,61,61,0,61,0.15,4.80,1.53,1.27
2014-06-26 17:50:00,2,6467,57,3.18,2,2,0,2,5056,8375,1159,6532,52,61,4,61,1.25,5.90,1.63,3.00
2014-06-26 18:00:00,2,5913,60,7.79,2,2,0,2,3892,7892,1373,5811,52,62,3,61,2.05,24.80,6.68,5.38
2014-06-26 18:10:00,2,6210,61,7.01,2,2,0,2,4693,7911,1022,6326,61,62,0,61,2.30,10.60,2.75,7.75
2014-06-26 18:20:00,2,8084,61,5.71,2,2,0,2,5967,10659,1511,8434,61,61,0,61,1.90,9.05,2.64,6.00
2014-06-26 18:30:00,2,9836,61,3.65,2,2,0,2,7128,15260,2114,9294,61,62,0,61,0.75,11.90,3.03,2.75
2014-06-26 18:40:00,2,10172,61,1.22,2,2,0,2,7720,13245,1525,10100,61,61,0,61,0.20,2.90,0.85,1.02
2014-06-26 18:50:00,2,8673,61,0.89,2,2,0,2,6172,10351,1234,8931,61,61,0,61,0.35,1.65,0.48,0.65
2014-06-26 19:00:00,2,7686,52,0.88,2,2,0,2,6209,9712,1201,7435,52,52,0,52,0.50,1.35,0.32,0.80
2014-06-26 19:10:00,2,10370,52,0.78,2,2,0,2,7584,13348,1766,10918,51,52,0,52,0.25,1.65,0.41,0.80
2014-06-26 19:20:00,2,9896,52,0.57,2,2,0,2,7719,14715,1771,9802,51,52,0,52,0.30,1.20,0.27,0.42
2014-06-26 19:30:00,2,16775,51,0.18,2,2,0,2,7567,35127,9612,11751,51,51,0,51,0.00,0.40,0.12,0.17
2014-06-26 19:40:00,2,19387,58,2.00,2,2,0,2,11218,39806,9338,15680,51,61,5,61,0.00,5.20,1.81,1.27
2014-06-26 19:50:00,2,23908,61,1.15,2,2,0,2,13189,33993,6803,22391,61,61,0,61,0.20,2.10,0.58,1.02
2014-06-26 20:00:00,2,20107,61,2.12,2,2,0,2,10113,42256,9148,18480,61,61,0,61,0.90,3.85,0.97,1.90
2014-06-26 20:10:00,2,25479,57,0.62,2,2,0,2,11873,42984,8920,25604,51,61,5,61,0.25,0.90,0.26,0.68
2014-06-26 20:20:00,2,10292,59,1.39,2,2,0,2,6316,16362,3879,8802,51,61,4,61,0.60,2.85,0.75,1.12
2014-06-26 20:30:00,2,6921,61,3.38,2,2,0,2,4523,9128,1421,6962,61,62,0,61,0.40,11.05,3.08,1.95
2014-06-26 20:40:00,2,7166,61,1.47,2,2,0,2,4785,10338,1370,7220,61,61,0,61,0.90,3.05,0.63,1.23
2014-06-26 20:50:00,2,6411,61,2.39,2,2,0,2,4459,9273,1301,6251,61,61,0,61,0.55,5.55,1.48,1.88
2014-06-26 21:00:00,2,6363,60,1.60,2,2,0,2,4640,9297,1309,6014,52,61,3,61,0.50,2.75,0.58,1.60
2014-06-26 21:10:00,2,7408,59,3.08,2,2,0,2,5855,9298,990,7466,52,61,4,61,1.50,6.20,1.44,2.80
2014-06-26 21:20:00,2,7259,61,2.69,2,2,0,2,5938,8751,843,7010,61,61,0,61,1.50,4.40,0.87,2.55
2014-06-26 21:30:00,2,7420,61,3.95,2,2,0,2,6006,8978,890,7508,61,61,0,61,1.80,6.35,1.37,3.85
2014-06-26 21:40:00,2,7791,61,3.38,2,2,0,2,6494,9534,926,7568,61,61,0,61,1.30,7.25,1.61,2.92
2014-06-26 21:50:00,2,7511,61,4.42,2,2,0,2,6279,9183,939,7304,61,61,0,61,1.15,8.40,2.57,3.35
2014-06-26 22:00:00,2,10443,61,1.60,2,2,0,2,8407,12706,1700,9989,61,61,0,61,0.65,3.20,0.66,1.52
2014-06-26 22:10:00,2,10842,61,2.85,2,2,0,2,9568,12962,1026,10484,61,61,0,61,1.40,5.30,1.30,2.35
2014-06-26 22:20:00,2,8987,61,4.14,2,2,0,2,7021,10635,1158,9017,61,61,0,61,1.65,7.45,1.84,3.85
2014-06-26 22:30:00,2,10345,61,2.60,2,2,0,2,7954,14253,2080,9877,61,61,0,61,1.10,6.00,1.45,2.35
2014-06-26 22:40:00,2,11081,61,2.38,2,2,0,2,8804,12662,1259,11110,61,61,0,61,1.20,3.80,0.78,2.15
2014-06-26 22:50:00,2,11183,61,2.15,2,2,0,2,9349,14173,1490,11213,61,61,0,61,0.70,3.90,0.96,2.10
2014-06-26 23:00:00,2,15698,61,2.64,2,2,0,2,12715,20273,2329,15090,61,61,0,61,1.55,5.40,1.27,2.17
2014-06-26 23:10:00,2,12910,61,2.79,2,2,0,2,10033,15212,1597,12824,61,61,0,61,1.40,4.35,0.83,2.77
2014-06-26 23:20:00,2,11314,61,3.71,2,2,0,2,7416,15854,2643,10920,61,61,0,61,1.80,6.20,1.43,3.27
2014-06-26 23:30:00,2,13266,61,2.49,2,2,0,2,11179,17786,1885,12746,61,61,0,61,1.35,3.70,0.70,2.35
2014-06-26 23:40:00,2,12886,61,2.84,2,2,0,2,9514,21408,3444,11703,61,61,0,61,1.55,4.80,0.97,2.70
2014-06-26 23:50:00,2,11235,61,1.67,2,2,0,2,8407,13747,1554,11134,61,61,0,61,0.80,3.80,0.88,1.60
